QPF
0.10 0.09 0.05 0.03 0.02 0.00 0.00 0.00 0.00 0.00 0.00 0.00 0.00 0.00 0.01 0.00 0.00 0.00 0.00 0.00 0.00 0.00 0.00 0.00 0.00 0.00 0.00 0.00 0.00 0.00 0.00 0.00 0.00 0.00 0.00 0.00 0.00 0.00 0.00 0.00 0.00 0.00 0.00
0.09 0.07 0.05 0.03 0.01 0.00 0.00 0.00 0.00 0.00 0.00 0.00 0.00 0.00 0.00 0.01 0.01 0.00 0.00 0.00 0.01 0.01 0.02 0.01 0.00 0.00 0.00 0.00 0.00 0.00 0.00 0.00 0.00 0.00 0.00 0.00 0.00 0.00 0.00 0.00 0.00 0.00 0.00
0.01 0.00 0.01 0.01 0.00 0.00 0.00 0.00 0.00 0.00 0.00 0.00 0.00 0.00 0.00 0.00 0.01 0.02 0.00 0.00 0.01 0.02 0.01 0.00 0.00 0.00 0.00 0.00 0.00 0.00 0.00 0.00 0.00 0.00 0.00 0.00 0.00 0.00 0.00 0.00 0.00 0.00 0.00
0.00 0.00 0.00 0.00 0.00 0.00 0.00 0.00 0.00 0.00 0.00 0.00 0.00 0.00 0.00 0.00 0.00 0.00 0.00 0.00 0.02 0.02 0.00 0.00 0.00 0.00 0.00 0.00 0.00 0.00 0.00 0.00 0.00 0.00 0.00 0.00 0.00 0.00 0.00 0.00 0.00 0.00 0.00
0.00 0.00 0.00 0.00 0.00 0.00 0.00 0.00 0.00 0.00 0.00 0.00 0.00 0.00 0.00 0.00 0.00 0.01 0.00 0.02 0.03 0.00 0.00 0.00 0.00 0.00 0.00 0.00 0.00 0.00 0.00 0.00 0.00 0.00 0.00 0.00 0.00 0.00 0.00 0.00 0.00 0.00 0.00
0.00 0.00 0.00 0.00 0.00 0.00 0.00 0.00 0.00 0.00 0.00 0.00 0.00 0.00 0.00 0.00 0.00 0.01 0.00 0.01 0.00 0.00 0.00 0.00 0.00 0.00 0.00 0.00 0.00 0.00 0.00 0.00 0.00 0.00 0.00 0.00 0.00 0.00 0.00 0.00 0.00 0.00 0.00
0.00 0.00 0.00 0.00 0.00 0.00 0.00 0.00 0.00 0.00 0.00 0.00 0.00 0.00 0.00 0.00 0.00 0.00 0.00 0.00 0.00 0.00 0.00 0.00 0.00 0.00 0.00 0.00 0.00 0.00 0.00 0.00 0.00 0.00 0.00 0.00 0.00 0.00 0.00 0.00 0.00 0.00 0.00
0.00 0.00 0.00 0.00 0.00 0.00 0.00 0.00 0.00 0.00 0.00 0.00 0.00 0.00 0.00 0.00 0.00 0.00 0.00 0.00 0.00 0.00 0.00 0.00 0.00 0.00 0.00 0.00 0.00 0.00 0.00 0.00 0.00 0.00 0.00 0.00 0.00 0.00 0.00 0.00 0.00 0.00 0.00
0.00 0.00 0.00 0.00 0.00 0.00 0.00 0.00 0.00 0.00 0.00 0.00 0.00 0.00 0.00 0.00 0.00 0.00 0.00 0.00 0.00 0.00 0.00 0.00 0.00 0.00 0.00 0.00 0.00 0.00 0.00 0.00 0.00 0.00 0.00 0.00 0.00 0.00 0.00 0.00 0.00 0.00 0.00
0.00 0.00 0.00 0.00 0.00 0.00 0.00 0.00 0.00 0.00 0.00 0.00 0.00 0.00 0.00 0.00 0.00 0.00 0.00 0.00 0.00 0.00 0.00 0.00 0.00 0.00 0.00 0.00 0.00 0.00 0.00 0.00 0.00 0.00 0.00 0.00 0.00 0.00 0.00 0.00 0.00 0.00 0.00
0.00 0.00 0.00 0.00 0.00 0.00 0.00 0.00 0.00 0.00 0.00 0.00 0.00 0.00 0.00 0.00 0.00 0.00 0.00 0.00 0.00 0.00 0.00 0.00 0.00 0.00 0.00 0.00 0.00 0.00 0.00 0.00 0.00 0.00 0.00 0.00 0.00 0.00 0.00 0.00 0.00 0.00 0.00
0.00 0.00 0.00 0.00 0.00 0.00 0.00 0.00 0.00 0.00 0.00 0.00 0.00 0.00 0.00 0.00 0.00 0.00 0.00 0.00 0.00 0.00 0.00 0.00 0.00 0.00 0.00 0.00 0.00 0.00 0.00 0.00 0.00 0.00 0.00 0.00 0.00 0.00 0.00 0.00 0.00 0.00 0.00
0.00 0.00 0.00 0.00 0.00 0.00 0.00 0.00 0.00 0.00 0.00 0.00 0.00 0.00 0.00 0.00 0.00 0.00 0.00 0.00 0.00 0.00 0.00 0.00 0.00 0.00 0.00 0.00 0.00 0.00 0.00 0.00 0.00 0.00 0.00 0.00 0.00 0.00 0.00 0.00 0.00 0.00 0.00
0.00 0.00 0.00 0.00 0.00 0.00 0.00 0.00 0.00 0.00 0.00 0.00 0.00 0.00 0.00 0.00 0.00 0.00 0.00 0.00 0.00 0.00 0.00 0.00 0.00 0.00 0.00 0.00 0.00 0.00 0.00 0.00 0.00 0.00 0.00 0.00 0.00 0.00 0.00 0.00 0.00 0.00 0.00
0.00 0.00 0.00 0.00 0.00 0.00 0.00 0.00 0.00 0.00 0.00 0.00 0.00 0.00 0.00 0.00 0.00 0.00 0.00 0.00 0.00 0.00 0.00 0.00 0.00 0.00 0.00 0.00 0.00 0.00 0.00 0.00 0.00 0.00 0.00 0.00 0.00 0.00 0.00 0.00 0.00 0.00 0.00
0.00 0.00 0.00 0.00 0.00 0.00 0.00 0.00 0.00 0.00 0.00 0.00 0.00 0.00 0.00 0.00 0.00 0.00 0.00 0.00 0.00 0.00 0.00 0.00 0.00 0.00 0.00 0.00 0.00 0.00 0.00 0.00 0.00 0.00 0.00 0.00 0.00 0.00 0.00 0.00 0.00 0.00 0.00
0.00 0.00 0.00 0.00 0.00 0.00 0.00 0.00 0.00 0.00 0.00 0.00 0.00 0.00 0.00 0.00 0.00 0.00 0.00 0.00 0.00 0.00 0.00 0.00 0.00 0.00 0.00 0.00 0.00 0.00 0.00 0.00 0.00 0.00 0.00 0.00 0.00 0.00 0.00 0.00 0.00 0.00 0.00
0.00 0.00 0.00 0.00 0.00 0.00 0.00 0.00 0.00 0.00 0.00 0.00 0.00 0.00 0.00 0.00 0.00 0.00 0.00 0.00 0.00 0.00 0.00 0.00 0.00 0.00 0.00 0.00 0.00 0.00 0.00 0.00 0.00 0.00 0.00 0.00 0.00 0.00 0.00 0.00 0.00 0.00 0.00
0.00 0.00 0.00 0.00 0.00 0.00 0.00 0.00 0.00 0.00 0.00 0.00 0.00 0.00 0.00 0.00 0.00 0.00 0.00 0.00 0.00 0.00 0.00 0.00 0.00 0.00 0.00 0.00 0.00 0.00 0.00 0.00 0.00 0.00 0.00 0.00 0.00 0.00 0.00 0.00 0.00 0.00 0.00
0.00 0.00 0.00 0.00 0.00 0.00 0.00 0.00 0.00 0.00 0.00 0.00 0.00 0.00 0.00 0.00 0.00 0.00 0.00 0.00 0.00 0.00 0.00 0.00 0.00 0.00 0.00 0.00 0.00 0.00 0.00 0.00 0.00 0.00 0.00 0.00 0.00 0.00 0.00 0.00 0.00 0.00 0.00
0.00 0.00 0.00 0.00 0.00 0.00 0.00 0.00 0.00 0.00 0.00 0.00 0.00 0.00 0.00 0.00 0.00 0.00 0.00 0.00 0.00 0.00 0.00 0.00 0.00 0.00 0.00 0.00 0.00 0.00 0.00 0.00 0.00 0.00 0.00 0.00 0.00 0.00 0.00 0.00 0.00 0.00 0.00
0.00 0.00 0.00 0.00 0.00 0.00 0.00 0.00 0.00 0.00 0.00 0.00 0.00 0.00 0.00 0.00 0.00 0.00 0.00 0.00 0.00 0.00 0.00 0.00 0.00 0.00 0.00 0.00 0.00 0.00 0.00 0.00 0.00 0.00 0.00 0.00 0.00 0.00 0.00 0.00 0.00 0.00 0.00
0.00 0.00 0.00 0.00 0.00 0.00 0.00 0.00 0.00 0.00 0.00 0.00 0.00 0.00 0.00 0.00 0.00 0.00 0.00 0.00 0.00 0.00 0.00 0.00 0.00 0.00 0.00 0.00 0.00 0.00 0.00 0.00 0.00 0.00 0.00 0.00 0.00 0.00 0.00 0.00 0.00 0.00 0.00
0.00 0.00 0.00 0.00 0.00 0.00 0.00 0.00 0.00 0.00 0.00 0.00 0.00 0.00 0.00 0.00 0.00 0.00 0.00 0.00 0.00 0.00 0.00 0.00 0.00 0.00 0.00 0.00 0.00 0.00 0.00 0.00 0.00 0.00 0.00 0.00 0.00 0.00 0.00 0.00 0.00 0.00 0.00
0.00 0.00 0.00 0.00 0.00 0.00 0.00 0.00 0.00 0.00 0.00 0.00 0.00 0.00 0.00 0.00 0.00 0.00 0.00 0.00 0.00 0.00 0.00 0.00 0.00 0.00 0.00 0.00 0.00 0.00 0.00 0.00 0.00 0.00 0.00 0.00 0.00 0.00 0.00 0.00 0.00 0.00 0.00
0.00 0.00 0.00 0.00 0.00 0.00 0.00 0.00 0.00 0.00 0.00 0.00 0.00 0.00 0.00 0.00 0.00 0.00 0.00 0.00 0.00 0.00 0.00 0.00 0.00 0.00 0.00 0.00 0.00 0.00 0.00 0.00 0.00 0.00 0.00 0.00 0.00 0.00 0.00 0.00 0.00 0.00 0.00
MSLP
1008.18 1008.54 1008.43 1008.82 1010.57 1010.35 1010.81 1011.38 1011.87 1012.16 1012.46 1012.90 1013.25 1013.56 1013.91 1014.16 1014.62 1015.04 1015.40 1015.75 1016.22 1016.62 1016.85 1017.08 1017.27 1017.39 1017.65 1018.01 1018.19 1018.25 1018.56 1018.77 1019.56 1020.76 1021.05 1021.20 1021.32 1021.33 1021.32 1021.36 1021.46 1021.37 1021.30
1008.59 1008.85 1009.39 1010.16 1010.62 1010.83 1011.47 1011.74 1012.13 1012.41 1012.80 1013.19 1013.42 1013.61 1013.87 1014.25 1014.62 1014.89 1015.37 1015.93 1016.39 1016.65 1016.81 1017.03 1017.21 1017.37 1017.55 1017.88 1018.07 1018.31 1018.54 1018.93 1019.58 1020.54 1021.35 1021.80 1021.87 1021.95 1022.02 1022.07 1022.05 1022.11 1021.97
1008.90 1009.23 1010.01 1010.53 1010.70 1011.30 1011.80 1012.21 1012.57 1012.82 1013.18 1013.57 1013.73 1013.97 1014.28 1014.42 1014.57 1014.91 1015.31 1015.86 1016.19 1016.43 1016.59 1016.88 1017.16 1017.47 1017.67 1017.84 1018.10 1018.40 1018.79 1019.22 1019.61 1020.29 1021.38 1022.12 1022.35 1022.32 1022.46 1022.61 1022.78 1022.85 1022.75
1009.39 1009.75 1010.31 1010.66 1010.97 1011.53 1012.09 1012.50 1012.70 1012.98 1013.33 1013.71 1013.81 1014.09 1014.49 1014.65 1014.81 1015.08 1015.55 1016.04 1016.49 1016.82 1016.97 1017.18 1017.55 1017.66 1017.83 1018.09 1018.39 1018.74 1019.09 1019.55 1020.13 1020.80 1021.68 1022.36 1022.74 1022.99 1023.00 1023.29 1023.74 1023.95 1023.92
1009.70 1010.27 1010.57 1010.94 1011.39 1011.76 1012.18 1012.56 1012.85 1013.30 1013.77 1013.89 1014.13 1014.33 1014.58 1014.82 1015.06 1015.40 1015.97 1016.46 1016.92 1017.29 1017.61 1017.87 1018.01 1018.09 1018.30 1018.51 1018.81 1019.32 1019.59 1020.17 1020.84 1021.41 1022.26 1023.00 1023.54 1023.89 1024.23 1024.40 1024.56 1024.78 1025.00
1009.60 1010.45 1010.68 1011.18 1011.51 1011.93 1012.45 1012.75 1013.10 1013.64 1013.83 1014.05 1014.27 1014.51 1014.67 1014.94 1015.25 1015.65 1016.22 1016.92 1017.52 1017.87 1018.39 1018.73 1018.74 1018.74 1018.82 1019.13 1019.50 1019.87 1020.14 1020.57 1021.29 1022.31 1023.44 1024.21 1024.81 1024.95 1025.02 1025.10 1025.16 1025.29 1025.49
1009.65 1010.52 1010.92 1011.34 1011.67 1012.08 1012.67 1012.86 1013.46 1013.80 1014.04 1014.41 1014.55 1014.66 1014.87 1015.21 1015.61 1016.19 1016.67 1017.50 1018.16 1018.80 1019.17 1019.62 1019.98 1020.28 1020.22 1020.44 1020.80 1021.00 1021.24 1021.63 1022.30 1023.34 1024.29 1025.08 1025.49 1025.60 1025.42 1025.59 1025.72 1025.94 1026.28
1009.74 1010.49 1010.93 1011.32 1011.72 1012.47 1012.85 1013.18 1013.77 1014.01 1014.42 1014.73 1014.98 1015.24 1015.54 1016.08 1016.36 1016.97 1017.58 1018.31 1018.92 1019.52 1020.02 1020.43 1020.80 1021.20 1021.41 1021.49 1021.93 1022.43 1023.02 1023.60 1024.28 1024.52 1025.08 1025.65 1025.88 1025.93 1025.76 1025.92 1026.20 1026.40 1026.47
1009.75 1010.50 1011.00 1011.55 1012.06 1012.66 1013.12 1013.55 1013.93 1014.39 1014.89 1015.25 1015.72 1016.08 1016.36 1017.15 1017.37 1017.77 1018.25 1018.91 1019.68 1020.44 1020.98 1021.40 1021.65 1021.83 1022.07 1022.45 1022.77 1023.50 1024.20 1024.57 1024.68 1024.89 1025.13 1025.30 1025.38 1025.53 1025.84 1026.05 1026.58 1026.69 1026.97
1009.85 1010.56 1010.92 1011.51 1012.18 1012.90 1013.29 1013.73 1014.36 1014.90 1015.56 1015.92 1016.53 1016.92 1017.32 1017.89 1018.32 1018.67 1019.03 1019.57 1020.48 1021.30 1021.82 1022.05 1022.15 1022.40 1022.85 1023.46 1023.81 1024.44 1025.20 1026.18 1026.22 1026.46 1026.82 1026.82 1026.84 1026.70 1026.55 1026.96 1027.07 1027.22 1027.34
1009.85 1010.50 1011.14 1011.75 1012.50 1012.99 1013.49 1014.12 1014.88 1015.43 1016.20 1016.87 1017.20 1017.74 1018.21 1018.69 1019.15 1019.46 1019.92 1020.35 1021.05 1021.81 1022.35 1022.74 1022.96 1023.17 1023.62 1024.16 1024.75 1025.14 1025.81 1026.61 1026.97 1027.24 1027.57 1027.75 1027.74 1027.80 1027.87 1027.77 1027.69 1027.62 1027.71
1009.92 1010.79 1011.38 1012.06 1012.66 1013.18 1013.72 1014.71 1015.35 1015.99 1016.67 1017.58 1017.90 1018.49 1019.23 1019.55 1019.84 1020.27 1020.74 1021.04 1021.72 1022.04 1022.85 1023.18 1023.51 1023.79 1024.19 1024.64 1025.18 1025.61 1026.21 1027.05 1027.64 1027.98 1028.34 1028.70 1028.80 1028.80 1028.77 1028.54 1028.37 1028.27 1028.09
1010.16 1010.96 1011.62 1012.28 1012.89 1013.46 1014.23 1015.05 1015.75 1016.35 1017.11 1018.09 1018.59 1019.10 1019.93 1020.36 1020.65 1020.97 1021.26 1021.79 1022.38 1022.83 1023.14 1023.40 1023.80 1024.23 1024.77 1025.42 1025.97 1026.60 1027.33 1027.93 1028.31 1028.72 1029.20 1029.38 1029.43 1029.48 1029.13 1028.90 1028.78 1028.73 1028.60
1010.29 1011.15 1011.85 1012.41 1013.16 1013.96 1014.75 1015.34 1015.96 1016.65 1017.48 1018.43 1019.25 1019.84 1020.50 1021.17 1021.47 1021.77 1022.09 1022.50 1022.74 1023.45 1024.28 1024.98 1025.16 1025.61 1026.25 1026.97 1027.71 1028.15 1028.47 1028.68 1028.81 1029.29 1029.60 1029.73 1029.69 1029.61 1029.53 1029.44 1029.34 1029.18 1029.00
1010.42 1011.19 1011.90 1012.68 1013.49 1014.48 1015.30 1015.77 1016.32 1016.98 1017.22 1018.21 1019.55 1020.13 1020.57 1021.60 1022.09 1022.29 1022.61 1023.33 1023.96 1024.53 1025.51 1026.18 1026.62 1027.42 1027.85 1028.31 1028.74 1029.09 1029.26 1029.30 1029.44 1029.72 1029.89 1030.01 1030.07 1030.05 1029.98 1029.84 1029.75 1029.64 1029.49
1010.49 1011.22 1012.05 1012.98 1013.98 1014.87 1015.73 1016.62 1017.11 1017.44 1018.13 1018.72 1019.43 1019.99 1021.05 1021.54 1022.02 1022.64 1023.21 1023.77 1024.31 1024.88 1025.89 1026.89 1027.68 1028.10 1028.54 1029.08 1029.52 1029.81 1029.87 1029.93 1030.06 1030.13 1030.25 1030.37 1030.48 1030.43 1030.43 1030.32 1030.14 1030.00 1029.79
1010.41 1011.34 1012.38 1013.32 1014.29 1015.22 1016.06 1016.76 1017.79 1018.95 1019.41 1019.65 1020.02 1020.61 1021.19 1021.63 1022.47 1023.12 1023.60 1024.19 1024.75 1025.43 1026.48 1027.51 1028.13 1028.69 1029.22 1029.62 1029.86 1030.08 1030.34 1030.38 1030.38 1030.51 1030.61 1030.77 1030.84 1030.85 1030.85 1030.74 1030.55 1030.29 1030.09
1010.83 1011.69 1012.57 1013.50 1014.38 1015.33 1016.17 1017.16 1018.12 1018.72 1019.96 1020.61 1020.89 1021.16 1021.69 1022.18 1022.93 1023.45 1023.97 1024.77 1025.73 1026.56 1027.19 1027.93 1028.61 1029.08 1029.43 1029.70 1030.08 1030.31 1030.48 1030.62 1030.73 1030.82 1030.95 1031.10 1031.17 1031.22 1031.21 1031.19 1030.98 1030.70 1030.42
1011.23 1012.17 1012.94 1013.77 1014.69 1015.59 1016.56 1017.59 1018.46 1019.12 1020.25 1020.96 1021.48 1021.99 1022.33 1022.70 1023.31 1023.91 1024.66 1025.37 1026.28 1027.18 1027.73 1028.32 1028.76 1029.15 1029.45 1029.85 1030.20 1030.38 1030.58 1030.88 1030.98 1031.10 1031.22 1031.28 1031.35 1031.42 1031.54 1031.52 1031.36 1030.89 1030.64
1011.72 1012.43 1013.25 1014.13 1015.06 1015.98 1016.89 1017.85 1018.90 1019.61 1020.49 1021.31 1021.74 1022.17 1022.75 1023.26 1023.85 1024.64 1025.22 1025.91 1026.66 1027.30 1027.83 1028.40 1028.86 1029.17 1029.52 1029.87 1030.24 1030.56 1030.85 1031.03 1031.15 1031.23 1031.38 1031.46 1031.50 1031.59 1031.68 1031.66 1031.52 1031.40 1031.07
1012.19 1013.00 1013.64 1014.64 1015.36 1016.19 1017.03 1018.06 1019.08 1019.85 1020.56 1021.49 1022.07 1022.38 1022.74 1023.37 1024.17 1024.89 1025.53 1026.13 1026.65 1027.21 1027.80 1028.31 1028.74 1029.12 1029.44 1029.87 1030.28 1030.69 1030.91 1031.14 1031.23 1031.31 1031.42 1031.47 1031.54 1031.65 1031.69 1031.68 1031.62 1031.44 1031.21
1012.56 1013.28 1014.03 1014.90 1015.75 1016.54 1017.33 1018.23 1019.21 1020.05 1020.77 1021.53 1022.37 1022.70 1023.17 1023.88 1024.49 1025.08 1025.57 1026.06 1026.54 1027.05 1027.59 1028.06 1028.62 1028.99 1029.36 1029.76 1030.24 1030.65 1030.92 1031.13 1031.25 1031.36 1031.44 1031.47 1031.58 1031.69 1031.75 1031.75 1031.71 1031.64 1031.41
1012.79 1013.53 1014.33 1015.32 1016.06 1016.88 1017.72 1018.42 1019.32 1020.12 1020.91 1021.56 1022.24 1022.75 1023.46 1024.08 1024.64 1025.14 1025.54 1026.00 1026.53 1027.09 1027.56 1028.04 1028.51 1029.06 1029.37 1029.76 1030.09 1030.38 1030.73 1031.01 1031.13 1031.22 1031.39 1031.54 1031.68 1031.73 1031.80 1031.91 1031.88 1031.79 1031.66
1012.98 1013.61 1014.41 1015.45 1016.25 1017.05 1017.80 1018.60 1019.40 1020.09 1020.84 1021.50 1022.15 1022.78 1023.47 1024.03 1024.57 1025.05 1025.50 1025.94 1026.51 1027.08 1027.49 1027.92 1028.34 1028.81 1029.34 1029.81 1030.07 1030.34 1030.58 1030.84 1031.07 1031.23 1031.35 1031.57 1031.77 1031.78 1031.94 1032.03 1031.98 1031.88 1031.79
1013.23 1013.80 1014.48 1015.22 1016.16 1016.96 1017.82 1018.56 1019.33 1020.02 1020.68 1021.29 1022.00 1022.69 1023.39 1023.98 1024.50 1024.98 1025.42 1025.91 1026.45 1026.99 1027.44 1027.91 1028.33 1028.70 1029.22 1029.69 1030.02 1030.30 1030.55 1030.82 1031.14 1031.28 1031.48 1031.63 1031.78 1031.92 1032.03 1032.09 1032.09 1032.05 1031.96
1013.34 1013.76 1014.40 1015.11 1015.97 1016.74 1017.51 1018.34 1019.11 1019.79 1020.34 1021.02 1021.70 1022.43 1023.08 1023.75 1024.24 1024.79 1025.31 1025.82 1026.43 1026.98 1027.43 1027.95 1028.26 1028.66 1029.20 1029.59 1029.90 1030.25 1030.58 1030.87 1031.16 1031.34 1031.56 1031.71 1031.85 1031.97 1032.03 1032.08 1032.14 1032.17 1032.09
Thickness
5609 5608 5614 5616 5604 5610 5613 5612 5612 5613 5611 5610 5609 5606 5604 5602 5597 5592 5587 5582 5578 5574 5573 5571 5570 5570 5569 5566 5565 5565 5563 5561 5554 5541 5538 5535 5533 5532 5531 5529 5527 5525 5523
5598 5597 5599 5597 5596 5601 5601 5604 5605 5605 5602 5602 5602 5601 5600 5596 5592 5589 5583 5577 5573 5572 5572 5570 5570 5569 5568 5565 5564 5562 5560 5556 5550 5542 5533 5528 5526 5523 5521 5519 5517 5513 5512
5588 5587 5586 5585 5590 5592 5594 5595 5595 5595 5594 5594 5594 5594 5592 5591 5588 5585 5581 5575 5573 5571 5571 5570 5569 5566 5565 5563 5561 5558 5554 5550 5546 5540 5529 5521 5518 5516 5513 5509 5504 5501 5499
5581 5580 5579 5581 5584 5586 5587 5588 5589 5588 5589 5588 5590 5589 5587 5585 5583 5580 5576 5572 5568 5566 5566 5565 5563 5564 5562 5559 5555 5552 5549 5544 5538 5532 5523 5516 5511 5506 5503 5499 5491 5485 5483
5575 5573 5573 5573 5576 5580 5582 5583 5583 5581 5581 5583 5583 5584 5583 5581 5578 5575 5571 5567 5564 5562 5561 5560 5559 5559 5556 5553 5550 5545 5541 5535 5529 5524 5515 5508 5500 5493 5487 5482 5478 5473 5468
5572 5568 5568 5568 5572 5574 5575 5578 5577 5575 5578 5578 5579 5579 5579 5577 5576 5572 5568 5563 5558 5557 5553 5551 5551 5552 5550 5547 5543 5538 5533 5528 5522 5513 5500 5490 5483 5479 5475 5471 5468 5464 5459
5566 5561 5562 5563 5568 5570 5571 5573 5570 5571 5573 5572 5573 5575 5575 5574 5571 5567 5564 5558 5553 5548 5546 5543 5540 5536 5535 5533 5530 5526 5521 5516 5509 5498 5488 5479 5473 5469 5467 5462 5456 5450 5443
5558 5556 5557 5562 5565 5564 5565 5566 5564 5567 5567 5567 5567 5568 5567 5565 5564 5560 5556 5551 5547 5543 5539 5536 5532 5527 5525 5524 5519 5513 5505 5498 5492 5487 5480 5472 5467 5463 5460 5454 5447 5440 5434
5553 5551 5553 5556 5558 5559 5560 5560 5561 5562 5560 5560 5560 5559 5560 5555 5555 5554 5550 5547 5541 5536 5531 5527 5525 5523 5519 5515 5511 5503 5494 5489 5484 5479 5474 5468 5463 5457 5451 5446 5436 5430 5421
5546 5547 5550 5553 5554 5554 5555 5557 5556 5554 5551 5552 5552 5552 5550 5548 5548 5546 5544 5542 5534 5528 5524 5523 5520 5517 5512 5507 5502 5496 5487 5476 5474 5468 5463 5457 5451 5445 5439 5433 5424 5415 5406
5542 5544 5546 5548 5548 5551 5552 5552 5549 5547 5545 5543 5545 5544 5543 5542 5541 5539 5537 5534 5530 5525 5521 5516 5514 5511 5506 5501 5496 5490 5481 5474 5468 5460 5453 5446 5439 5432 5424 5417 5410 5401 5391
5538 5538 5541 5544 5546 5548 5550 5544 5542 5541 5540 5536 5539 5538 5535 5535 5535 5533 5530 5529 5525 5523 5516 5512 5510 5506 5502 5497 5491 5485 5477 5469 5460 5452 5443 5433 5425 5418 5411 5403 5395 5386 5376
5534 5535 5537 5540 5542 5544 5543 5539 5538 5537 5535 5533 5534 5534 5530 5528 5528 5527 5526 5523 5520 5517 5514 5512 5508 5504 5499 5492 5485 5477 5468 5459 5451 5442 5432 5423 5415 5407 5400 5392 5382 5371 5360
5530 5531 5535 5538 5539 5538 5535 5536 5536 5536 5533 5530 5527 5526 5523 5521 5520 5520 5520 5519 5517 5513 5508 5503 5501 5496 5489 5482 5475 5467 5459 5451 5443 5434 5424 5415 5407 5398 5389 5379 5367 5354 5340
5528 5528 5532 5534 5535 5531 5530 5531 5533 5533 5535 5532 5525 5524 5523 5516 5515 5518 5518 5514 5510 5506 5502 5497 5492 5485 5480 5474 5466 5458 5451 5444 5435 5426 5417 5408 5398 5389 5379 5368 5356 5341 5325
5526 5526 5529 5531 5528 5526 5525 5524 5527 5529 5528 5528 5525 5524 5518 5518 5518 5515 5515 5512 5508 5505 5499 5493 5485 5481 5475 5468 5460 5452 5445 5437 5428 5420 5410 5401 5391 5381 5370 5358 5345 5330 5313
5525 5526 5525 5526 5525 5524 5524 5525 5521 5517 5517 5519 5520 5519 5518 5518 5515 5513 5512 5508 5505 5502 5496 5488 5483 5477 5471 5463 5456 5448 5439 5431 5423 5414 5404 5394 5384 5374 5362 5349 5336 5321 5305
5520 5521 5522 5523 5523 5523 5523 5519 5516 5516 5511 5511 5513 5514 5514 5514 5512 5511 5509 5504 5498 5495 5491 5486 5480 5475 5469 5462 5453 5445 5436 5428 5419 5410 5400 5389 5378 5368 5356 5343 5330 5315 5299
5518 5517 5518 5519 5519 5519 5517 5515 5513 5513 5508 5506 5507 5507 5509 5510 5510 5508 5505 5501 5496 5491 5488 5484 5480 5474 5468 5460 5451 5443 5435 5424 5416 5406 5396 5387 5376 5365 5352 5339 5326 5314 5298
5514 5514 5514 5516 5516 5516 5514 5513 5510 5510 5507 5506 5506 5507 5507 5508 5506 5503 5502 5499 5495 5492 5489 5484 5479 5474 5467 5459 5450 5441 5432 5423 5414 5405 5394 5385 5375 5363 5351 5338 5325 5310 5297
5508 5509 5510 5510 5513 5514 5513 5512 5508 5507 5506 5503 5503 5506 5510 5509 5506 5504 5501 5498 5496 5493 5490 5485 5480 5474 5467 5459 5450 5441 5432 5423 5414 5404 5394 5385 5375 5364 5353 5340 5327 5314 5301
5504 5505 5507 5507 5507 5509 5509 5508 5506 5505 5504 5502 5500 5504 5507 5504 5504 5503 5501 5500 5498 5496 5492 5487 5481 5475 5468 5460 5451 5442 5433 5424 5415 5405 5395 5386 5376 5365 5354 5343 5331 5318 5306
5501 5503 5502 5502 5503 5505 5504 5505 5504 5503 5502 5502 5502 5504 5503 5504 5504 5503 5502 5501 5499 5496 5492 5487 5482 5475 5468 5461 5452 5445 5436 5427 5418 5408 5398 5388 5377 5367 5356 5345 5334 5322 5310
5499 5501 5500 5499 5500 5501 5502 5503 5502 5502 5501 5502 5502 5504 5504 5504 5504 5504 5502 5501 5499 5495 5492 5488 5483 5477 5469 5461 5454 5446 5438 5430 5420 5410 5400 5390 5380 5369 5359 5348 5338 5328 5318
5494 5498 5500 5500 5499 5500 5501 5502 5502 5501 5501 5502 5503 5504 5504 5504 5504 5504 5503 5501 5499 5496 5493 5489 5484 5477 5470 5463 5456 5448 5440 5431 5422 5413 5403 5393 5383 5373 5363 5353 5343 5333 5323
5492 5495 5498 5498 5500 5501 5501 5502 5501 5501 5502 5503 5503 5504 5505 5505 5506 5505 5503 5501 5499 5496 5493 5489 5484 5478 5470 5464 5457 5449 5441 5433 5424 5415 5406 5397 5387 5377 5368 5358 5349 5339 5331